AirNav   Everest Fuels
 
 1348 users online  

4TA2 V-Bar Airport
China Spring, Texas, USA

GOING TO CHINA SPRING?


FAA INFORMATION EFFECTIVE 26 JANUARY 2023

Location

FAA Identifier: 4TA2
Lat/Long: 31-44-32.1000N 097-19-11.5000W
31-44.535000N 097-19.191667W
31.7422500,-97.3198611
(estimated)
Elevation: 565 ft. / 172 m (estimated)
Time zone: UTC -6 (UTC -5 during Daylight Saving Time)
Zip code: 76633

Airport Operations

Airport use: Private use. Permission required prior to landing
Activation date: 01/2015
Control tower: no
ARTCC: FORT WORTH CENTER
FSS: FORT WORTH FLIGHT SERVICE STATION
Attendance: UNATTND
Segmented circle: no

Airport Communications

WX ASOS at ACT (9 nm SE): PHONE 254-759-3065
WX AWOS-3PT at CNW (14 nm SE): 134.225 (254-867-3880)
WX AWOS-3PT at PWG (15 nm S): 135.525 (254-848-4581)

Nearby radio navigation aids

VOR radial/distance  VOR name  Freq  Var
ACTr323/5.5WACO VORTAC115.3009E

 
NDB name  Hdg/Dist  Freq  Var  ID
ROBINSON315/19.240003EROB .-. --- -...

Airport Services

Runway Information

Runway 6/24

Dimensions: 1976 x 75 ft. / 602 x 23 m
Surface: turf
RUNWAY 6  RUNWAY 24
Traffic pattern: leftleft

Airport Ownership and Management from official FAA records

Ownership: Privately-owned
Owner: VAN GRANGER
1315 CR 3660
CHINA SPRING, TX 76633
Phone 254-836-9731
Manager: TIM COMPTON
623 CR 3660
CHINA SPRING, TX 76633
Phone 254-214-9526

Additional Remarks

FOR CD CTC FORT WORTH ARTCC AT 817-858-7584.

Instrument Procedures

There are no published instrument procedures at 4TA2.

Some nearby airports with instrument procedures:

KACT - Waco Regional Airport (9 nm SE)
KCNW - TSTC Waco Airport (14 nm SE)
KPWG - Mc Gregor Executive Airport (15 nm S)
KINJ - Hillsboro Municipal Airport (23 nm NE)
T15 - Marlin Airport (34 nm SE)
 
Loc | Ops | Rwys | IFR | FBO | Links
Com | Nav | Svcs | Stats | Notes

City of Fort Worth
 
Aerial photo
No photo
 
Airport distance calculator
Flying to V-Bar Airport? Find the distance to fly.

From to 4TA2

Sunrise and sunset
Times for 30-Jan-2023
 Local
(UTC-6)
 Zulu
(UTC)
Morning civil twilight06:5912:59
Sunrise07:2513:25
Sunset18:0100:01
Evening civil twilight18:2600:26

Current date and time
Zulu (UTC)  31-Jan-2023 00:52:17
Local (UTC-6)  30-Jan-2023 18:52:17
 
METAR
KACT 
9nm SE 
310036Z 35011KT 7SM UP OVC009 M03/M03 A3029 RMK AO2 UPB34 CIG 007V012 P0000 T10281028
KCNW 
14nm SE 
302355Z 35012G16KT 7SM OVC007 M02/M02 A3028
KPWG 
17nm S 
310012Z AUTO 35011KT 7SM -SN OVC006 M02/M03 A3028 RMK AO2 P0000 FZRANO
TAF
KACT 
9nm SE 
302059Z 3021/3118 34012KT 6SM -FZDZ OVC009 TEMPO 3021/3024 4SM -FZRAPL FM310100 36012KT P6SM OVC015 FM311400 36011KT P6SM -FZRAPL OVC013
NOTAMs
Click for the latest NOTAMs
NOTAMs are issued by the DoD/FAA and will open in a separate window not controlled by AirNav.

 

 
 

Would you like to see your business listed on this page?

 If your business provides an interesting product or service to pilots, flight crews, aircraft, or users of the V-Bar Airport, you should consider listing it here.  To start the listing process, click on the button below
 
Add a business
 

Other Pages about V-Bar Airport

Update a link
 
Copyright © AirNav, LLC. All rights reserved. Privacy Policy  Contact